Location: ??
(35.5672°N, 139.6509°E)
Time: 10:41:05
(UTC+00:00)

IDEFIX/ARIANE 42P - Pass Details

Date: 03 August 2024
Orbit: 782 x 799 km, 98.5° (Epoch: 08 September)

Event Time Altitude Azimuth Distance (km) Brightness Sun altitude
Rises 16:15:28 0° 14° (NNE) 3,275 6.8 -33.2°
Reaches altitude 10° 16:17:48 10° 15° (NNE) 2,343 5.8 -33.0°
Enters shadow 16:21:24 46° 24° (NNE) 1,048 3.5 -32.7°
